COOK1: Arkansas River Nr Coolidge, KS

                                SHEF ID:       COOK1     ARKANSAS R NR COOLIDGE, KS
STATION TYPE:
Regulating: Stage = 8.00, Flow = 2050

PRECIP STAGE STAGE(2) RIV-FLOW WTR-TEMP CONDUCT BAT-LOAD
in ft ft cfs F umho/cm volt
Ccp-Rev Ccp-Rev Ccp-Rev Ccp-Rev Ccp-Rev Ccp-Rev Ccp-Rev
(America/Chicago)
06/16 00:00 0.00 2.54 2.58 57 77.67 6233 13.00
06/16 01:00 0.00 2.54 2.58 57 76.60 6230 12.95
06/16 02:00 0.00 2.55 2.59 58 75.61 6228 12.95
06/16 03:00 0.00 2.54 2.59 57 74.53 6226 12.89
06/16 04:00 0.00 2.55 2.59 58 73.42 6214 12.89
06/16 05:00 0.00 2.55 2.59 58 72.46 6203 12.89
06/16 06:00 0.00 2.53 2.60 56 71.56 6192 12.89
06/16 07:00 0.00 2.53 2.60 56 70.66 6170 12.89
06/16 08:00 0.00 2.54 2.59 57 70.29 6147 12.89
06/16 09:00 0.00 2.54 2.60 57 70.86 6142 12.89
06/16 10:00 0.00 2.55 2.60 58 72.57 6142 13.12
06/16 11:00 0.00 2.53 2.61 56 74.95 6140 13.48
06/16 12:00 0.00 2.53 2.61 56 77.72 6140 13.71
06/16 13:00 0.00 2.54 2.60 57 80.60 6133 13.71
06/16 14:00 0.00 2.53 2.62 56 83.28 6120 13.59
06/16 15:00 0.00 2.55 2.61 58 85.26 6111 13.65
06/16 16:00 0.00 2.54 2.62 57 86.40 6091 13.53
06/16 17:00 0.00 2.54 2.60 57 86.29 6075 13.18
06/16 18:00 0.00 2.53 2.62 56 85.51 6070 13.30
06/16 19:00 0.00 2.54 2.62 57 83.59 6084 13.18
06/16 20:00 0.00 2.55 2.63 58 81.77 6084 13.12
06/16 21:00 0.00 2.55 2.61 58 79.79 6077 13.07
06/16 22:00 0.00 2.55 2.62 58 78.40 6028 13.07
06/16 23:00 ---- ---- ---- ---- ---- ---- ----
Data processed at Mon 17Jun2024 04:30 GMT

Parsing this webpage?

Checkout our new Data API! CWMSDataAPI (CDA)

Timeseries IDs (TSIDs)

TSIDs used from left to right in the data table
COOL.Precip-Inc.Total.1Hour.1Hour.Ccp-Rev
COOL.Stage.Inst.1Hour.0.Ccp-Rev
COOL.Stage-Alt.Inst.1Hour.0.Ccp-Rev
COOL.Flow.Inst.1Hour.0.Ccp-Rev
COOL.Temp-Water.Inst.1Hour.0.Ccp-Rev
COOL.Cond.Inst.1Hour.0.Ccp-Rev
COOL.Volt-Battery Load.Inst.1Hour.0.Ccp-Rev

                            

All information presented herein is the property of the government of the United States of America and may be revised or deleted at any time without prior notice. Dissemination of this information without the expressed written consent of the Public Affairs Office, Tulsa District U.S. Army Corps of Engineers is strictly prohibited. These data are gathered electronically and, as presented, have NOT undergone any form of quality control. These data are NOT guaranteed to be valid or correct.